[[{"header":{"parameterUnit":"m.s-1","parameterCategory":1,"la1":30.2991,"la2":30.254,"lo1":-89.0895,"lo2":-89.0444,"dy":0.0017,"dx":0.0017,"nx":28,"ny":28,"refTime":"2025-04-18T03:00:00:Z","depth":0,"parameterNumber":2,"parameterNumberName":"U-component_of_WINDS"},"data":[0,0,0,0,0,0,0,0,0,0,0,0,0,0,0,0,0,0,0,0,0,0,0,0,0,0,0,0,0,0,0,0,0,0,0,0,0,0,0,0,0,0,0,0,0,0,0,0,0,0,0,0,0,0,0,0,0,0,-3.1848,-3.1849,0,-3.1901,-3.1901,-3.1902,-3.1888,-3.1887,-3.1886,-3.1885,-3.1937,-3.1939,-3.1941,0,0,0,0,0,0,0,0,0,0,0,0,0,-3.1735,-3.1737,-3.1848,-3.1849,-3.185,-3.1901,-3.1901,-3.1902,-3.1888,-3.1887,-3.1886,-3.1885,-3.1936,-3.1939,-3.1941,0,0,0,0,0,0,0,0,0,0,0,0,0,-3.1785,-3.1738,-3.1848,-3.1849,-3.185,-3.19,-3.1901,-3.1902,-3.1889,-3.1887,-3.1886,-3.1884,-3.1935,-3.1938,-3.1942,-3.1994,0,0,-3.1952,-3.1954,0,0,0,0,0,0,0,0,-3.1783,-3.179,-3.1848,-3.1849,-3.185,-3.1886,-3.188,-3.1933,-3.1889,-3.1874,-3.1885,-3.1883,-3.1921,-3.1926,-3.1939,-3.1997,-3.1999,-3.1953,-3.1955,-3.1956,-3.1957,0,0,0,0,0,0,0,-3.1779,-3.1787,-3.1869,-3.1849,-3.185,-3.1846,-3.1852,-3.189,-3.1905,-3.1875,-3.1874,-3.1881,-3.1921,-3.1935,-3.194,-3.2,-3.1953,-3.1956,-3.1958,-3.1959,-3.2103,-3.2105,0,0,0,0,0,0,-3.1775,-3.1784,-3.1867,-3.1871,-3.1812,-3.185,-3.1856,-3.1876,-3.1905,-3.1908,-3.1882,-3.188,-3.193,-3.1936,-3.1942,-3.2004,-3.1956,-3.196,-3.1962,-3.2101,-3.2103,-3.2105,0,0,0,0,0,0,-3.1773,-3.1783,-3.1865,-3.1827,-3.1838,-3.1853,-3.1876,-3.1878,-3.1892,-3.191,-3.1913,-3.1894,-3.1929,-3.1937,-3.1981,-3.2006,-3.1961,-3.1964,-3.2099,-3.2102,-3.2104,-3.213,0,0,0,0,0,0,-3.177,-3.1782,-3.1802,-3.1828,-3.184,-3.1905,-3.1878,-3.188,-3.1899,-3.1896,-3.1922,-3.1925,-3.1928,-3.1976,-3.1985,-3.201,-3.1967,-3.2097,-3.21,-3.2103,-3.2127,-3.2133,-3.2139,0,0,0,0,0,-3.1766,-3.1807,-3.1804,-3.1814,-3.1866,-3.1906,-3.1913,-3.1917,-3.1901,-3.1921,-3.1933,-3.1924,-3.2002,-3.1981,-3.199,-3.2017,-3.2095,-3.2099,-3.2103,-3.2125,-3.2132,-3.2139,0,0,0,0,0,0,-3.1783,-3.1811,-3.1807,-3.1858,-3.188,-3.1904,-3.1929,-3.1925,-3.1951,-3.1948,-3.1952,-3.1957,-3.2003,-3.2015,-3.199,-3.2069,-3.2046,-3.2052,-3.2059,-3.2067,-3.2072,-3.2068,-3.197,0,0,0,0,0,-3.1794,-3.1825,-3.1847,-3.189,-3.1901,-3.1914,-3.1931,-3.1933,-3.1955,-3.1964,-3.1979,-3.2001,-3.203,-3.2049,-3.2078,-3.213,-3.2134,-3.2153,-3.2158,-3.2163,-3.2167,-3.2195,-3.2203,-3.2118,-3.2118,-3.2118,0,0,-3.1814,-3.1833,-3.1852,-3.1894,-3.1911,-3.1942,-3.1921,-3.1956,-3.1979,-3.1969,-3.2012,-3.2024,-3.2049,-3.2097,-3.2119,-3.2108,-3.2192,-3.2168,-3.2171,-3.2173,-3.22,-3.2208,-3.2215,-3.2121,-3.212,-3.212,0,0,-3.1868,-3.1886,-3.1923,-3.1941,-3.1968,-3.1976,-3.1985,-3.201,-3.2017,-3.2061,-3.2054,-3.2082,-3.2133,-3.215,-3.2166,-3.2227,-3.2219,-3.2236,-3.2265,-3.2292,-3.2299,-3.2305,-3.2325,-3.2333,-3.2241,-3.2241,-3.2241,0,-3.189,-3.1937,-3.1943,-3.1978,-3.1996,-3.199,-3.2028,-3.2045,-3.2079,-3.2091,-3.2079,-3.2143,-3.2159,-3.2211,-3.2226,-3.2239,-3.2249,-3.2232,-3.2298,-3.2303,-3.2309,-3.2329,-3.2337,-3.2243,-3.2243,-3.2242,-3.2242,0,-3.1963,-3.1996,-3.2023,-3.2057,-3.2078,-3.2114,-3.2125,-3.2146,-3.2146,-3.2155,-3.2199,-3.2219,-3.225,-3.2263,-3.2263,-3.2315,-3.2308,-3.2297,-3.2273,-3.2319,-3.2337,-3.2345,-3.2245,-3.2245,-3.2244,-3.2244,0,0,-3.2027,-3.2064,-3.2074,-3.2089,-3.2118,-3.2144,-3.218,-3.2212,-3.2229,-3.2253,-3.2282,-3.2326,-3.2316,-3.2334,-3.2336,-3.236,-3.2406,-3.2346,-3.2347,-3.2355,-3.2463,-3.247,-3.2479,-3.2402,-3.2404,-3.2405,-3.2461,0,-3.2082,-3.2145,-3.2152,-3.2208,-3.2239,-3.2234,-3.2265,-3.2286,-3.2296,-3.2323,-3.2334,-3.2364,-3.235,-3.236,-3.2384,-3.2395,-3.2427,-3.2392,-3.2428,-3.2429,-3.242,-3.2489,-3.2496,-3.2548,-3.2468,-3.2469,-3.247,0,-3.2154,-3.2181,-3.2241,-3.2266,-3.2279,-3.2307,-3.2336,-3.2362,-3.2386,-3.2392,-3.2412,-3.2411,-3.2447,-3.2425,-3.2474,-3.245,-3.2465,-3.2473,-3.2475,-3.2477,-3.2451,-3.2491,-3.2564,-3.2571,-3.2482,-3.2481,-3.248,0,-3.2193,-3.2245,-3.2287,-3.23,-3.2331,-3.235,-3.2364,-3.2386,-3.2405,-3.2431,-3.2443,-3.2473,-3.2488,-3.2511,-3.2518,-3.2501,-3.2567,-3.2545,-3.2572,-3.2571,-3.2584,-3.2583,-3.2659,-3.2597,-3.2597,-3.2597,-3.2597,0,-3.2253,-3.2289,-3.2305,-3.2331,-3.2371,-3.2378,-3.2418,-3.243,-3.245,-3.2478,-3.2476,-3.2502,-3.2511,-3.2538,-3.2544,-3.2583,-3.2591,-3.2595,-3.2596,-3.2595,-3.2594,-3.2603,-3.2599,-3.2599,-3.2598,-3.2598,-3.2598,0,-3.2303,-3.2315,-3.2361,-3.2386,-3.2394,-3.2422,-3.2444,-3.2468,-3.2479,-3.2513,-3.2522,-3.2538,-3.257,-3.2579,-3.2618,-3.2622,-3.2667,-3.2666,-3.2659,-3.2659,-3.2684,-3.2681,-3.2768,-3.278,-3.2712,-3.2712,-3.2713,0,-3.234,-3.2368,-3.2396,-3.2415,-3.243,-3.246,-3.2479,-3.2487,-3.2507,-3.2537,-3.2558,-3.2589,-3.2615,-3.2666,-3.268,-3.271,-3.2708,-3.2737,-3.2712,-3.271,-3.2707,-3.2704,-3.2706,-3.274,-3.2741,-3.2742,-3.2742,0,-3.2403,-3.2407,-3.2435,-3.2466,-3.2489,-3.2513,-3.2536,-3.2552,-3.2563,-3.2586,-3.2619,-3.2639,-3.2678,-3.271,-3.274,-3.2753,-3.2749,-3.275,-3.2757,-3.2755,-3.275,-3.2752,-3.267,-3.2747,-3.2747,-3.2747,-3.2746,-3.2746,-3.2446,-3.2471,-3.2495,-3.2526,-3.2545,-3.2566,-3.2591,-3.2604,-3.2632,-3.2665,-3.2668,-3.2704,-3.2727,-3.2767,-3.2782,-3.2809,-3.28,-3.2811,-3.2814,-3.2816,-3.2818,-3.2747,-3.2814,-3.2814,-3.2814,-3.2814,-3.2814,0,-3.2508,-3.2523,-3.2552,-3.2585,-3.261,-3.2606,-3.2631,-3.2652,-3.2683,-3.2705,-3.2731,-3.2768,-3.2799,-3.2816,-3.2846,-3.2865,-3.2864,-3.2872,-3.287,-3.2873,-3.2824,-3.2814,-3.2872,-3.2872,-3.2872,-3.2872,-3.2872,-3.2872,-3.2543,-3.2584,-3.2591,-3.2641,-3.2656,-3.2691,-3.2706,-3.2726,-3.2744,-3.2786,-3.2811,-3.2823,-3.2843,-3.2875,-3.2902,-3.2906,-3.2917,-3.2926,-3.2929,-3.2883,-3.2876,-3.2871,-3.2861,-3.2929,-3.2929,-3.2975,-3.2976,-3.2976]},{"header":{"parameterUnit":"m.s-1","parameterCategory":1,"la1":30.2991,"la2":30.254,"lo1":-89.0895,"lo2":-89.0444,"dy":0.0017,"dx":0.0017,"nx":28,"ny":28,"refTime":"2025-04-18T03:00:00:Z","depth":0,"parameterNumber":3,"parameterNumberName":"V-component_of_WINDS"},"data":[0,0,0,0,0,0,0,0,0,0,0,0,0,0,0,0,0,0,0,0,0,0,0,0,0,0,0,0,0,0,0,0,0,0,0,0,0,0,0,0,0,0,0,0,0,0,0,0,0,0,0,0,0,0,0,0,0,0,3.1876,3.1875,0,3.1861,3.1861,3.1861,3.1821,3.182,3.1819,3.1818,3.1805,3.1805,3.1806,0,0,0,0,0,0,0,0,0,0,0,0,0,3.187,3.187,3.1876,3.1875,3.1875,3.1861,3.1861,3.1861,3.1821,3.182,3.1819,3.1818,3.1805,3.1805,3.1806,0,0,0,0,0,0,0,0,0,0,0,0,0,3.1866,3.187,3.1876,3.1854,3.1851,3.1861,3.1861,3.1861,3.1821,3.182,3.1818,3.1817,3.1805,3.1805,3.1806,3.1836,0,0,3.1808,3.1808,0,0,0,0,0,0,0,0,3.1866,3.1866,3.1857,3.1855,3.1853,3.1841,3.1854,3.1853,3.1821,3.1833,3.1818,3.1817,3.1818,3.1818,3.1818,3.1836,3.1835,3.1808,3.1808,3.1809,3.1809,0,0,0,0,0,0,0,3.1866,3.1866,3.187,3.1857,3.1854,3.1845,3.1843,3.1854,3.1833,3.1832,3.1829,3.1827,3.1817,3.1817,3.1817,3.1835,3.1808,3.1809,3.1809,3.1809,3.1878,3.1879,0,0,0,0,0,0,3.187,3.1867,3.187,3.187,3.1856,3.1846,3.1844,3.1846,3.1833,3.1829,3.1829,3.1826,3.1817,3.1817,3.1817,3.1852,3.1809,3.1809,3.181,3.1877,3.1878,3.188,0,0,0,0,0,0,3.187,3.187,3.1871,3.1867,3.1867,3.1848,3.1851,3.1847,3.1847,3.183,3.1827,3.1833,3.1816,3.1816,3.1832,3.1851,3.181,3.181,3.1875,3.1877,3.1879,3.1922,0,0,0,0,0,0,3.187,3.1871,3.1882,3.1868,3.1867,3.1886,3.1852,3.1847,3.1848,3.1844,3.1833,3.183,3.1815,3.1831,3.1833,3.1851,3.1811,3.1873,3.1876,3.1878,3.1919,3.1925,3.1931,0,0,0,0,0,3.187,3.1895,3.1882,3.1883,3.188,3.1887,3.1887,3.1868,3.185,3.1861,3.1851,3.1831,3.1848,3.1833,3.1834,3.1853,3.1872,3.1875,3.1878,3.1916,3.1924,3.1931,0,0,0,0,0,0,3.1911,3.1892,3.1879,3.19,3.1895,3.188,3.1894,3.1877,3.1878,3.1874,3.1851,3.1849,3.1868,3.1862,3.1845,3.1882,3.1857,3.1861,3.1885,3.1893,3.1899,3.19,3.1811,0,0,0,0,0,3.1923,3.1929,3.1913,3.1933,3.1931,3.1913,3.1915,3.1901,3.1896,3.1894,3.1884,3.188,3.1885,3.1889,3.1892,3.1918,3.1915,3.1932,3.1938,3.1943,3.1946,3.196,3.1967,3.189,3.189,3.189,0,0,3.1947,3.1937,3.1943,3.1941,3.1936,3.1944,3.1912,3.1921,3.1927,3.1896,3.191,3.1903,3.1897,3.1919,3.1927,3.1914,3.1967,3.1947,3.1951,3.1952,3.1964,3.1971,3.1978,3.1892,3.1892,3.1892,0,0,3.1995,3.1988,3.2004,3.2,3.1993,3.198,3.1984,3.1972,3.1966,3.198,3.1957,3.1964,3.1972,3.1969,3.1968,3.2016,3.1998,3.2018,3.2049,3.2063,3.2069,3.2074,3.2092,3.2098,3.2021,3.2021,3.2021,0,3.2026,3.2036,3.2015,3.2026,3.2026,3.1998,3.2014,3.2011,3.2006,3.2007,3.1992,3.2002,3.1996,3.2017,3.2028,3.2029,3.2033,3.2019,3.207,3.2075,3.208,3.2096,3.2102,3.2024,3.2023,3.2023,3.2023,0,3.2075,3.2082,3.2097,3.2092,3.2093,3.2107,3.2089,3.2093,3.2079,3.2069,3.2084,3.2076,3.2077,3.2081,3.2067,3.21,3.2092,3.2074,3.2048,3.209,3.2105,3.2111,3.2027,3.2026,3.2026,3.2025,0,0,3.2148,3.2131,3.2137,3.2134,3.2125,3.213,3.2143,3.2144,3.2149,3.2146,3.2157,3.2165,3.2148,3.2148,3.2134,3.2146,3.2184,3.2126,3.2126,3.2137,3.222,3.2233,3.2241,3.2172,3.2173,3.2174,3.222,0,3.2194,3.2214,3.2196,3.222,3.2227,3.2201,3.2212,3.2207,3.2198,3.2203,3.2193,3.2199,3.2177,3.2177,3.2187,3.2177,3.22,3.2174,3.2182,3.2183,3.2185,3.2248,3.2263,3.2307,3.2226,3.2227,3.2228,0,3.2249,3.2249,3.2274,3.2262,3.2265,3.2275,3.2275,3.228,3.2275,3.2267,3.2267,3.2249,3.2262,3.2237,3.2254,3.2236,3.2239,3.2235,3.2236,3.2236,3.2208,3.225,3.232,3.2327,3.2236,3.2236,3.2235,0,3.23,3.2306,3.2322,3.2321,3.2308,3.2316,3.2311,3.2304,3.2306,3.2306,3.2307,3.2309,3.231,3.2312,3.2296,3.2279,3.2315,3.2288,3.231,3.231,3.2319,3.2318,3.239,3.232,3.232,3.232,3.232,0,3.2353,3.237,3.2345,3.2355,3.2372,3.2351,3.237,3.2362,3.2357,3.2365,3.2342,3.235,3.2328,3.2335,3.2322,3.2339,3.2339,3.2334,3.2331,3.2336,3.2337,3.2338,3.2334,3.2322,3.2322,3.2321,3.2321,0,3.2413,3.2397,3.2413,3.2399,3.2397,3.241,3.2399,3.2408,3.2397,3.2408,3.2409,3.2393,3.2399,3.2383,3.2387,3.2379,3.2403,3.2394,3.2404,3.2402,3.2424,3.2422,3.2499,3.2508,3.2432,3.2433,3.2434,0,3.2448,3.246,3.2448,3.2452,3.2448,3.2454,3.2456,3.2436,3.2439,3.2434,3.2444,3.2448,3.245,3.2462,3.245,3.2453,3.2445,3.2471,3.2445,3.2451,3.2446,3.2445,3.2446,3.2477,3.2478,3.2479,3.2479,0,3.2512,3.2503,3.2506,3.2507,3.251,3.2509,3.2507,3.2512,3.2491,3.2495,3.2501,3.2503,3.2507,3.2512,3.2512,3.2508,3.249,3.2488,3.2493,3.2499,3.2504,3.2502,3.2419,3.2486,3.2485,3.2485,3.2484,3.2484,3.256,3.257,3.2563,3.2567,3.2564,3.2563,3.257,3.256,3.2565,3.2566,3.2554,3.2563,3.2558,3.2557,3.2554,3.2561,3.2549,3.2556,3.2558,3.256,3.2564,3.2503,3.2561,3.2561,3.256,3.256,3.256,0,3.2623,3.2617,3.2621,3.2619,3.2623,3.2606,3.2603,3.2607,3.2615,3.2611,3.2614,3.2621,3.2626,3.2615,3.2618,3.2625,3.2617,3.2627,3.2626,3.2626,3.2575,3.257,3.2633,3.2633,3.2633,3.2633,3.2633,3.2633,3.2656,3.2671,3.2662,3.2675,3.2669,3.2677,3.2677,3.2676,3.2673,3.2682,3.2686,3.2678,3.2672,3.2674,3.2678,3.2675,3.2677,3.2689,3.2684,3.2636,3.2629,3.2622,3.2618,3.269,3.269,3.2734,3.2734,3.2735]}]]